Year,Month,Day,Hour,Minute,Value (Times are PST for temperature in C)
2016,09,16,07,28,11.10
2016,09,16,07,29,11.10
2016,09,16,07,30,11.10
2016,09,16,07,31,11.10
2016,09,16,07,32,11.20
2016,09,16,07,33,11.20
2016,09,16,07,34,11.20
2016,09,16,07,35,11.30
2016,09,16,07,36,11.30
2016,09,16,07,37,11.30
2016,09,16,07,38,11.30
2016,09,16,07,39,11.40
2016,09,16,07,40,11.40
2016,09,16,07,41,11.40
2016,09,16,07,42,11.40
2016,09,16,07,43,11.40
2016,09,16,07,44,11.50
2016,09,16,07,45,11.50
2016,09,16,07,46,11.50
2016,09,16,07,47,11.60
2016,09,16,07,48,11.60
2016,09,16,07,49,11.60
2016,09,16,07,50,11.60
2016,09,16,07,51,11.60
2016,09,16,07,52,11.60
2016,09,16,07,53,11.60
2016,09,16,07,54,11.70
2016,09,16,07,55,11.70
2016,09,16,07,56,11.70
2016,09,16,07,57,11.70
2016,09,16,07,58,11.70
2016,09,16,07,59,11.80
2016,09,16,08,00,11.80
2016,09,16,08,01,11.80
2016,09,16,08,02,11.90
2016,09,16,08,03,11.90
2016,09,16,08,04,11.90
2016,09,16,08,05,12.00
2016,09,16,08,06,12.00
2016,09,16,08,07,12.10
2016,09,16,08,08,12.10
2016,09,16,08,09,12.10
2016,09,16,08,10,12.10
2016,09,16,08,11,12.20
2016,09,16,08,12,12.20
2016,09,16,08,13,12.20
2016,09,16,08,14,12.20
2016,09,16,08,15,12.30
2016,09,16,08,16,12.30
2016,09,16,08,17,12.30
2016,09,16,08,18,12.40
2016,09,16,08,19,12.50
2016,09,16,08,20,12.50
2016,09,16,08,21,12.60
2016,09,16,08,22,12.70
2016,09,16,08,23,12.80
2016,09,16,08,24,12.80
2016,09,16,08,25,12.90
2016,09,16,08,26,12.90
2016,09,16,08,27,12.90
2016,09,16,08,28,13.00
2016,09,16,08,29,13.00
2016,09,16,08,30,13.00
2016,09,16,08,31,13.10
2016,09,16,08,32,13.10
2016,09,16,08,33,13.10
2016,09,16,08,34,13.10
2016,09,16,08,35,13.10
2016,09,16,08,36,13.20
2016,09,16,08,37,13.20
2016,09,16,08,38,13.20
2016,09,16,08,39,13.20
2016,09,16,08,40,13.20
2016,09,16,08,41,13.20
2016,09,16,08,42,13.20
2016,09,16,08,43,13.20
2016,09,16,08,44,13.30
2016,09,16,08,45,13.30
2016,09,16,08,46,13.30
2016,09,16,08,47,13.30
2016,09,16,08,48,13.30
2016,09,16,08,49,13.30
2016,09,16,08,50,13.40
2016,09,16,08,51,13.40
2016,09,16,08,52,13.40
2016,09,16,08,53,13.50
2016,09,16,08,54,13.50
2016,09,16,08,55,13.50
2016,09,16,08,56,13.60
2016,09,16,08,57,13.60
2016,09,16,08,58,13.70
2016,09,16,08,59,13.70
2016,09,16,09,00,13.80
2016,09,16,09,01,13.80
2016,09,16,09,02,13.90
2016,09,16,09,03,14.00
2016,09,16,09,04,14.00
2016,09,16,09,05,14.10
2016,09,16,09,06,14.10
2016,09,16,09,07,14.20
2016,09,16,09,08,14.30
2016,09,16,09,09,14.30
2016,09,16,09,10,14.40
2016,09,16,09,11,14.50
2016,09,16,09,12,14.60
2016,09,16,09,13,14.70
2016,09,16,09,14,14.70
2016,09,16,09,15,14.80
2016,09,16,09,16,14.80
2016,09,16,09,17,14.80
2016,09,16,09,18,14.80
2016,09,16,09,19,14.80
2016,09,16,09,20,14.80
2016,09,16,09,21,14.90
2016,09,16,09,22,14.90
2016,09,16,09,23,14.90
2016,09,16,09,24,14.90
2016,09,16,09,25,14.90
2016,09,16,09,26,14.90
2016,09,16,09,27,14.90
2016,09,16,09,28,14.90
2016,09,16,09,29,14.90
2016,09,16,09,30,14.90
2016,09,16,09,31,14.90
2016,09,16,09,32,14.90
2016,09,16,09,33,14.90
2016,09,16,09,34,14.90
2016,09,16,09,35,14.90
2016,09,16,09,36,15.00
2016,09,16,09,37,15.00
2016,09,16,09,38,15.10
2016,09,16,09,39,15.10
2016,09,16,09,40,15.10
2016,09,16,09,41,15.10
2016,09,16,09,42,15.20
2016,09,16,09,43,15.20
2016,09,16,09,44,15.20
2016,09,16,09,45,15.20
2016,09,16,09,46,15.20
2016,09,16,09,47,15.30
2016,09,16,09,48,15.30
2016,09,16,09,49,15.30
2016,09,16,09,50,15.30
2016,09,16,09,51,15.40
2016,09,16,09,52,15.40
2016,09,16,09,53,15.40
2016,09,16,09,54,15.40
2016,09,16,09,55,15.40
2016,09,16,09,56,15.40
2016,09,16,09,57,15.40
2016,09,16,09,58,15.40
2016,09,16,09,59,15.50
2016,09,16,10,00,15.50
2016,09,16,10,01,15.60
2016,09,16,10,02,15.60
2016,09,16,10,03,15.70
2016,09,16,10,04,15.80
2016,09,16,10,05,15.90
2016,09,16,10,06,16.00
2016,09,16,10,07,16.10
2016,09,16,10,08,16.20
2016,09,16,10,09,16.20
2016,09,16,10,10,16.30
2016,09,16,10,11,16.40
2016,09,16,10,12,16.50
2016,09,16,10,13,16.60
2016,09,16,10,14,16.60
2016,09,16,10,15,16.70
2016,09,16,10,16,16.80
2016,09,16,10,17,16.80
2016,09,16,10,18,16.80
2016,09,16,10,19,16.80
2016,09,16,10,20,16.80
2016,09,16,10,21,16.90
2016,09,16,10,22,16.90
2016,09,16,10,23,16.90
2016,09,16,10,24,16.90
2016,09,16,10,25,17.00
2016,09,16,10,26,17.00
2016,09,16,10,27,16.90
2016,09,16,10,28,16.90
2016,09,16,10,29,16.80
2016,09,16,10,30,16.80
2016,09,16,10,31,16.90
2016,09,16,10,32,16.90
2016,09,16,10,33,16.90
2016,09,16,10,34,16.90
2016,09,16,10,35,16.90
2016,09,16,10,36,16.90
2016,09,16,10,37,17.00
2016,09,16,10,38,17.00
2016,09,16,10,39,17.10
2016,09,16,10,40,17.10
2016,09,16,10,41,17.20
2016,09,16,10,42,17.20
2016,09,16,10,43,17.20
2016,09,16,10,44,17.30
2016,09,16,10,45,17.30
2016,09,16,10,46,17.40
2016,09,16,10,47,17.40
2016,09,16,10,48,17.50
2016,09,16,10,49,17.60
2016,09,16,10,50,17.60
2016,09,16,10,51,17.70
2016,09,16,10,52,17.70
2016,09,16,10,53,17.80
2016,09,16,10,54,17.90
2016,09,16,10,55,17.90
2016,09,16,10,56,17.80
2016,09,16,10,57,17.70
2016,09,16,10,58,17.40
2016,09,16,10,59,17.30
2016,09,16,11,00,17.10
2016,09,16,11,01,17.00
2016,09,16,11,02,16.90
2016,09,16,11,03,17.00
2016,09,16,11,04,17.00
2016,09,16,11,05,17.10
2016,09,16,11,06,17.20
2016,09,16,11,07,17.30
2016,09,16,11,08,17.40
2016,09,16,11,09,17.60
2016,09,16,11,10,17.70
2016,09,16,11,11,17.80
2016,09,16,11,12,18.00
2016,09,16,11,13,18.10
2016,09,16,11,14,18.20
2016,09,16,11,15,18.30
2016,09,16,11,16,18.30
2016,09,16,11,17,18.40
2016,09,16,11,18,18.40
2016,09,16,11,19,18.40
2016,09,16,11,20,18.40
2016,09,16,11,21,18.40
2016,09,16,11,22,18.40
2016,09,16,11,23,18.50
2016,09,16,11,24,18.60
2016,09,16,11,25,18.60
2016,09,16,11,26,18.70
2016,09,16,11,27,18.80
2016,09,16,11,28,18.90
2016,09,16,11,29,19.00
2016,09,16,11,30,19.10
2016,09,16,11,31,19.10
2016,09,16,11,32,19.10
2016,09,16,11,33,19.00
2016,09,16,11,34,18.90
2016,09,16,11,35,18.70
2016,09,16,11,36,18.60
2016,09,16,11,37,18.50
2016,09,16,11,38,18.40
2016,09,16,11,39,18.30
2016,09,16,11,40,18.30
2016,09,16,11,41,18.30
2016,09,16,11,42,18.20
2016,09,16,11,43,18.20
2016,09,16,11,44,18.20
2016,09,16,11,45,18.20
2016,09,16,11,46,18.20
2016,09,16,11,47,18.20
2016,09,16,11,48,18.20
2016,09,16,11,49,18.20
2016,09,16,11,50,18.20
2016,09,16,11,51,18.20
2016,09,16,11,52,18.30
2016,09,16,11,53,18.30
2016,09,16,11,54,18.30
2016,09,16,11,55,18.40
2016,09,16,11,56,18.40
2016,09,16,11,57,18.40
2016,09,16,11,58,18.30
2016,09,16,11,59,18.20
2016,09,16,12,00,18.20
2016,09,16,12,01,18.20
2016,09,16,12,02,18.30
2016,09,16,12,03,18.30
2016,09,16,12,04,18.40
2016,09,16,12,05,18.40
2016,09,16,12,06,18.50
2016,09,16,12,07,18.60
2016,09,16,12,08,18.60
2016,09,16,12,09,18.70
2016,09,16,12,10,18.80
2016,09,16,12,11,18.80
2016,09,16,12,12,18.80
2016,09,16,12,13,18.90
2016,09,16,12,14,18.90
2016,09,16,12,15,18.90
2016,09,16,12,16,19.00
2016,09,16,12,17,19.00
2016,09,16,12,18,19.00
2016,09,16,12,19,19.10
2016,09,16,12,20,19.10
2016,09,16,12,21,19.10
2016,09,16,12,22,19.20
2016,09,16,12,23,19.30
2016,09,16,12,24,19.40
2016,09,16,12,25,19.50
2016,09,16,12,26,19.60
2016,09,16,12,27,19.70
2016,09,16,12,28,19.80
2016,09,16,12,29,19.80
2016,09,16,12,30,19.90
2016,09,16,12,31,19.90
2016,09,16,12,32,20.00
2016,09,16,12,33,20.10
2016,09,16,12,34,20.20
2016,09,16,12,35,20.30
2016,09,16,12,36,20.40
2016,09,16,12,37,20.50
2016,09,16,12,38,20.60
2016,09,16,12,39,20.70
2016,09,16,12,40,20.70
2016,09,16,12,41,20.80
2016,09,16,12,42,20.90
2016,09,16,12,43,21.00
2016,09,16,12,44,21.10
2016,09,16,12,45,21.10
2016,09,16,12,46,21.10
2016,09,16,12,47,21.20
2016,09,16,12,48,21.20
2016,09,16,12,49,21.20
2016,09,16,12,50,21.20
2016,09,16,12,51,21.20
2016,09,16,12,52,21.20
2016,09,16,12,53,21.10
2016,09,16,12,54,21.10
2016,09,16,12,55,21.10
2016,09,16,12,56,21.00
2016,09,16,12,57,20.90
2016,09,16,12,58,20.80
2016,09,16,12,59,20.70
2016,09,16,13,00,20.60
2016,09,16,13,01,20.40
2016,09,16,13,02,20.40
2016,09,16,13,03,20.30
2016,09,16,13,04,20.30
2016,09,16,13,05,20.20
2016,09,16,13,06,20.20
2016,09,16,13,07,20.20
2016,09,16,13,08,20.20
2016,09,16,13,09,20.20
2016,09,16,13,10,20.20
2016,09,16,13,11,20.20
2016,09,16,13,12,20.20
2016,09,16,13,13,20.10
2016,09,16,13,14,20.10
2016,09,16,13,15,20.10
2016,09,16,13,16,20.10
2016,09,16,13,17,20.10
2016,09,16,13,18,20.20
2016,09,16,13,19,20.20
2016,09,16,13,20,20.20
2016,09,16,13,21,20.20
2016,09,16,13,22,20.20
2016,09,16,13,23,20.20
2016,09,16,13,24,20.20
2016,09,16,13,25,20.20
2016,09,16,13,26,20.10
2016,09,16,13,27,20.10
2016,09,16,13,28,20.10
2016,09,16,13,29,20.20
2016,09,16,13,30,20.20
2016,09,16,13,31,20.20
2016,09,16,13,32,20.30
2016,09,16,13,33,20.40
2016,09,16,13,34,20.40
2016,09,16,13,35,20.50
2016,09,16,13,36,20.60
2016,09,16,13,37,20.50
2016,09,16,13,38,20.50
2016,09,16,13,39,20.40
2016,09,16,13,40,20.40
2016,09,16,13,41,20.40
2016,09,16,13,42,20.40
2016,09,16,13,43,20.40
2016,09,16,13,44,20.40
2016,09,16,13,45,20.30
2016,09,16,13,46,20.20
2016,09,16,13,47,20.10
2016,09,16,13,48,20.00
2016,09,16,13,49,19.90
2016,09,16,13,50,19.80
2016,09,16,13,51,19.80
2016,09,16,13,52,19.70
2016,09,16,13,53,19.50
2016,09,16,13,54,19.30
2016,09,16,13,55,19.20
2016,09,16,13,56,19.20
2016,09,16,13,57,19.10
2016,09,16,13,58,19.10
2016,09,16,13,59,19.10
2016,09,16,14,00,19.10
2016,09,16,14,01,19.10
2016,09,16,14,02,19.00
2016,09,16,14,03,18.90
2016,09,16,14,04,18.90
2016,09,16,14,05,18.90
2016,09,16,14,06,18.80
2016,09,16,14,07,18.80
2016,09,16,14,08,18.70
2016,09,16,14,09,18.50
2016,09,16,14,10,18.40
2016,09,16,14,11,18.30
2016,09,16,14,12,18.20
2016,09,16,14,13,18.20
2016,09,16,14,14,18.00
2016,09,16,14,15,18.00
2016,09,16,14,16,17.90
2016,09,16,14,17,17.90
2016,09,16,14,18,17.90
2016,09,16,14,19,17.80
2016,09,16,14,20,17.80
2016,09,16,14,21,17.80
2016,09,16,14,22,17.80
2016,09,16,14,23,17.80
2016,09,16,14,24,17.80
2016,09,16,14,25,17.80
2016,09,16,14,26,17.80
2016,09,16,14,27,17.80
2016,09,16,14,28,17.70
2016,09,16,14,29,17.70
2016,09,16,14,30,17.70
2016,09,16,14,31,17.70
2016,09,16,14,32,17.70
2016,09,16,14,33,17.70
2016,09,16,14,34,17.70
2016,09,16,14,35,17.70
2016,09,16,14,36,17.70
2016,09,16,14,37,17.80
2016,09,16,14,38,17.80
2016,09,16,14,39,17.80
2016,09,16,14,40,17.80
2016,09,16,14,41,17.80
2016,09,16,14,42,17.70
2016,09,16,14,43,17.70
2016,09,16,14,44,17.60
2016,09,16,14,45,17.60
2016,09,16,14,46,17.50
2016,09,16,14,47,17.50
2016,09,16,14,48,17.40
2016,09,16,14,49,17.40
2016,09,16,14,50,17.30
2016,09,16,14,51,17.30
2016,09,16,14,52,17.30
2016,09,16,14,53,17.30
2016,09,16,14,54,17.20
2016,09,16,14,55,17.20
2016,09,16,14,56,17.10
2016,09,16,14,57,17.10
2016,09,16,14,58,17.10
2016,09,16,14,59,17.10
2016,09,16,15,00,17.10
2016,09,16,15,01,17.10
2016,09,16,15,02,17.10
2016,09,16,15,03,17.20
2016,09,16,15,04,17.20
2016,09,16,15,05,17.20
2016,09,16,15,06,17.20
2016,09,16,15,07,17.20
2016,09,16,15,08,17.20
2016,09,16,15,09,17.30
2016,09,16,15,10,17.30
2016,09,16,15,11,17.30
2016,09,16,15,12,17.30
2016,09,16,15,13,17.30
2016,09,16,15,14,17.30
2016,09,16,15,15,17.30
2016,09,16,15,16,17.40
2016,09,16,15,17,17.40
2016,09,16,15,18,17.40
2016,09,16,15,19,17.40
2016,09,16,15,20,17.40
2016,09,16,15,21,17.40
2016,09,16,15,22,17.40
2016,09,16,15,23,17.30
2016,09,16,15,24,17.30
2016,09,16,15,25,17.30
2016,09,16,15,26,17.30
2016,09,16,15,27,17.30
2016,09,16,15,28,17.30
2016,09,16,15,29,17.20
2016,09,16,15,30,17.20
2016,09,16,15,31,17.10
2016,09,16,15,32,17.10
2016,09,16,15,33,17.10
2016,09,16,15,34,17.10
2016,09,16,15,35,17.20
2016,09,16,15,36,17.20
2016,09,16,15,37,17.30
2016,09,16,15,38,17.30
2016,09,16,15,39,17.40
2016,09,16,15,40,17.40
2016,09,16,15,41,17.30
2016,09,16,15,42,17.30
2016,09,16,15,43,17.40
2016,09,16,15,44,17.40
2016,09,16,15,45,17.40
2016,09,16,15,46,17.50
2016,09,16,15,47,17.50
2016,09,16,15,48,17.60
2016,09,16,15,49,17.60
2016,09,16,15,50,17.60
2016,09,16,15,51,17.70
2016,09,16,15,52,17.70
2016,09,16,15,53,17.70
2016,09,16,15,54,17.70
2016,09,16,15,55,17.70
2016,09,16,15,56,17.70
2016,09,16,15,57,17.70
2016,09,16,15,58,17.60
2016,09,16,15,59,17.70
2016,09,16,16,00,17.70
2016,09,16,16,01,17.70
2016,09,16,16,02,17.70
2016,09,16,16,03,17.70
2016,09,16,16,04,17.80
2016,09,16,16,05,17.80
2016,09,16,16,06,17.90
2016,09,16,16,07,17.90
2016,09,16,16,08,18.00
2016,09,16,16,09,18.10
2016,09,16,16,10,18.10
2016,09,16,16,11,18.20
2016,09,16,16,12,18.20
2016,09,16,16,13,18.10
2016,09,16,16,14,18.10
2016,09,16,16,15,18.10
2016,09,16,16,16,18.00
2016,09,16,16,17,18.00
2016,09,16,16,18,17.90
2016,09,16,16,19,17.80
2016,09,16,16,20,17.80
2016,09,16,16,21,17.70
2016,09,16,16,22,17.70
2016,09,16,16,23,17.70
2016,09,16,16,24,17.60
2016,09,16,16,25,17.60
2016,09,16,16,26,17.50
2016,09,16,16,27,17.40
2016,09,16,16,28,17.40
2016,09,16,16,29,17.30
2016,09,16,16,30,17.30
2016,09,16,16,31,17.20
2016,09,16,16,32,17.10
2016,09,16,16,33,17.10
2016,09,16,16,34,17.00
2016,09,16,16,35,17.00
2016,09,16,16,36,17.00
2016,09,16,16,37,16.90
2016,09,16,16,38,16.90
2016,09,16,16,39,16.90
2016,09,16,16,40,16.80
2016,09,16,16,41,16.80
2016,09,16,16,42,16.80
2016,09,16,16,43,16.80
2016,09,16,16,44,16.80
2016,09,16,16,45,16.70
2016,09,16,16,46,16.70
2016,09,16,16,47,16.70
2016,09,16,16,48,16.60
2016,09,16,16,49,16.60
2016,09,16,16,50,16.50
2016,09,16,16,51,16.40
2016,09,16,16,52,16.40
2016,09,16,16,53,16.30
2016,09,16,16,54,16.30
2016,09,16,16,55,16.30
2016,09,16,16,56,16.20
2016,09,16,16,57,16.20
2016,09,16,16,58,16.20
2016,09,16,16,59,16.10
2016,09,16,17,00,16.00
2016,09,16,17,01,16.00
2016,09,16,17,02,16.00
2016,09,16,17,03,15.90
2016,09,16,17,04,15.90
2016,09,16,17,05,15.90
2016,09,16,17,06,15.90
2016,09,16,17,07,15.90
2016,09,16,17,08,15.80
2016,09,16,17,09,15.80
2016,09,16,17,10,15.80
2016,09,16,17,11,15.90
2016,09,16,17,12,15.90
2016,09,16,17,13,15.90
2016,09,16,17,14,15.90
2016,09,16,17,15,15.90
2016,09,16,17,16,15.90
2016,09,16,17,17,15.90
2016,09,16,17,18,15.90
2016,09,16,17,19,16.00
2016,09,16,17,20,16.00
2016,09,16,17,21,16.00
2016,09,16,17,22,16.00
2016,09,16,17,23,16.00
2016,09,16,17,24,16.00
2016,09,16,17,25,16.00
2016,09,16,17,26,16.00
2016,09,16,17,27,16.00
2016,09,16,17,28,16.00
2016,09,16,17,29,16.00
2016,09,16,17,30,16.00
2016,09,16,17,31,16.00
2016,09,16,17,32,15.90
2016,09,16,17,33,15.90
2016,09,16,17,34,15.90
2016,09,16,17,35,15.90
2016,09,16,17,36,15.80
2016,09,16,17,37,15.80
2016,09,16,17,38,15.80
2016,09,16,17,39,15.80
2016,09,16,17,40,15.70
2016,09,16,17,41,15.70
2016,09,16,17,42,15.70
2016,09,16,17,43,15.60
2016,09,16,17,44,15.60
2016,09,16,17,45,15.60
2016,09,16,17,46,15.60
2016,09,16,17,47,15.50
2016,09,16,17,48,15.50
2016,09,16,17,49,15.50
2016,09,16,17,50,15.40
2016,09,16,17,51,15.40
2016,09,16,17,52,15.40
2016,09,16,17,53,15.40
2016,09,16,17,54,15.40
2016,09,16,17,55,15.40
2016,09,16,17,56,15.40
2016,09,16,17,57,15.30
2016,09,16,17,58,15.30
2016,09,16,17,59,15.30
2016,09,16,18,00,15.30
2016,09,16,18,01,15.30
2016,09,16,18,02,15.30
2016,09,16,18,03,15.30
2016,09,16,18,04,15.30
2016,09,16,18,05,15.30
2016,09,16,18,06,15.30
2016,09,16,18,07,15.30
2016,09,16,18,08,15.20
2016,09,16,18,09,15.20
2016,09,16,18,10,15.20
2016,09,16,18,11,15.20
2016,09,16,18,12,15.20
2016,09,16,18,13,15.20
2016,09,16,18,14,15.20
2016,09,16,18,15,15.20
2016,09,16,18,16,15.20
2016,09,16,18,17,15.20
2016,09,16,18,18,15.10
2016,09,16,18,19,15.10
2016,09,16,18,20,15.10
2016,09,16,18,21,15.10
2016,09,16,18,22,15.10
2016,09,16,18,23,15.10
2016,09,16,18,24,15.10
2016,09,16,18,25,15.10
2016,09,16,18,26,15.10
2016,09,16,18,27,15.10
2016,09,16,18,28,15.10
2016,09,16,18,29,15.10
2016,09,16,18,30,15.10
2016,09,16,18,31,15.10
2016,09,16,18,32,15.10
2016,09,16,18,33,15.10
2016,09,16,18,34,15.10
2016,09,16,18,35,15.10
2016,09,16,18,36,15.10
2016,09,16,18,37,15.00
2016,09,16,18,38,15.00
2016,09,16,18,39,15.00
2016,09,16,18,40,14.90
2016,09,16,18,41,14.90
2016,09,16,18,42,14.90
2016,09,16,18,43,14.90
2016,09,16,18,44,14.90
2016,09,16,18,45,14.90
2016,09,16,18,46,14.90
2016,09,16,18,47,14.90
2016,09,16,18,48,14.80
2016,09,16,18,49,14.80
2016,09,16,18,50,14.80
2016,09,16,18,51,14.80
2016,09,16,18,52,14.80
2016,09,16,18,53,14.80
2016,09,16,18,54,14.80
2016,09,16,18,55,14.80
2016,09,16,18,56,14.80
2016,09,16,18,57,14.80
2016,09,16,18,58,14.80
2016,09,16,18,59,14.80
2016,09,16,19,00,14.70
2016,09,16,19,01,14.70
2016,09,16,19,02,14.70
2016,09,16,19,03,14.70
2016,09,16,19,04,14.70
2016,09,16,19,05,14.70
2016,09,16,19,06,14.70
2016,09,16,19,07,14.70
2016,09,16,19,08,14.60
2016,09,16,19,09,14.60
2016,09,16,19,10,14.60
2016,09,16,19,11,14.60
2016,09,16,19,12,14.60
2016,09,16,19,13,14.60
2016,09,16,19,14,14.60
2016,09,16,19,15,14.60
2016,09,16,19,16,14.60
2016,09,16,19,17,14.50
2016,09,16,19,18,14.50
2016,09,16,19,19,14.50
2016,09,16,19,20,14.50
2016,09,16,19,21,14.50
2016,09,16,19,22,14.40
2016,09,16,19,23,14.40
2016,09,16,19,24,14.40
2016,09,16,19,25,14.40
2016,09,16,19,26,14.40
2016,09,16,19,27,14.40
2016,09,16,19,28,14.40
2016,09,16,19,29,14.40
2016,09,16,19,30,14.40
2016,09,16,19,31,14.40
2016,09,16,19,32,14.40
2016,09,16,19,33,14.40
2016,09,16,19,34,14.40
2016,09,16,19,35,14.40
2016,09,16,19,36,14.40
2016,09,16,19,37,14.40
2016,09,16,19,38,14.40
2016,09,16,19,39,14.40
2016,09,16,19,40,14.40
2016,09,16,19,41,14.40
2016,09,16,19,42,14.40
2016,09,16,19,43,14.40
2016,09,16,19,44,14.40
2016,09,16,19,45,14.40
2016,09,16,19,46,14.40
2016,09,16,19,47,14.30
2016,09,16,19,48,14.30
2016,09,16,19,49,14.30
2016,09,16,19,50,14.30
2016,09,16,19,51,14.30
2016,09,16,19,52,14.30
2016,09,16,19,53,14.30
2016,09,16,19,54,14.30
2016,09,16,19,55,14.20
2016,09,16,19,56,14.20
2016,09,16,19,57,14.20
2016,09,16,19,58,14.20
2016,09,16,19,59,14.20
2016,09,16,20,00,14.20
2016,09,16,20,01,14.20
2016,09,16,20,02,14.20
2016,09,16,20,03,14.20
2016,09,16,20,04,14.20
2016,09,16,20,05,14.20
2016,09,16,20,06,14.20
2016,09,16,20,07,14.20
2016,09,16,20,08,14.20
2016,09,16,20,09,14.20
2016,09,16,20,10,14.20
2016,09,16,20,11,14.20
2016,09,16,20,12,14.20
2016,09,16,20,13,14.20
2016,09,16,20,14,14.20
2016,09,16,20,15,14.20
2016,09,16,20,16,14.20
2016,09,16,20,17,14.20
2016,09,16,20,18,14.20
2016,09,16,20,19,14.20
2016,09,16,20,20,14.20
2016,09,16,20,21,14.20
2016,09,16,20,22,14.20
2016,09,16,20,23,14.20
2016,09,16,20,24,14.20
2016,09,16,20,25,14.10
2016,09,16,20,26,14.10
2016,09,16,20,27,14.10
2016,09,16,20,28,14.10
2016,09,16,20,29,14.10
2016,09,16,20,30,14.10
2016,09,16,20,31,14.10
2016,09,16,20,32,14.10
2016,09,16,20,33,14.10
2016,09,16,20,34,14.20
2016,09,16,20,35,14.20
2016,09,16,20,36,14.20
2016,09,16,20,37,14.20
2016,09,16,20,38,14.20
2016,09,16,20,39,14.20
2016,09,16,20,40,14.10
2016,09,16,20,41,14.10
2016,09,16,20,42,14.10
2016,09,16,20,43,14.10
2016,09,16,20,44,14.10
2016,09,16,20,45,14.10
2016,09,16,20,46,14.10
2016,09,16,20,47,14.10
2016,09,16,20,48,14.10
2016,09,16,20,49,14.10
2016,09,16,20,50,14.00
2016,09,16,20,51,14.00
2016,09,16,20,52,14.00
2016,09,16,20,53,14.00
2016,09,16,20,54,14.00
2016,09,16,20,55,14.00
2016,09,16,20,56,14.00
2016,09,16,20,57,14.00
2016,09,16,20,58,13.90
2016,09,16,20,59,13.90
2016,09,16,21,00,13.90
2016,09,16,21,01,13.90
2016,09,16,21,02,13.90
2016,09,16,21,03,13.90
2016,09,16,21,04,13.90
2016,09,16,21,05,13.90
2016,09,16,21,06,13.90
2016,09,16,21,07,13.90
2016,09,16,21,08,14.00
2016,09,16,21,09,13.90
2016,09,16,21,10,13.90
2016,09,16,21,11,13.90
2016,09,16,21,12,13.90
2016,09,16,21,13,13.90
2016,09,16,21,14,13.90
2016,09,16,21,15,13.90
2016,09,16,21,16,13.90
2016,09,16,21,17,13.90
2016,09,16,21,18,13.90
2016,09,16,21,19,13.90
2016,09,16,21,20,13.90
2016,09,16,21,21,13.90
2016,09,16,21,22,13.90
2016,09,16,21,23,13.90
2016,09,16,21,24,13.90
2016,09,16,21,25,13.90
2016,09,16,21,26,13.90
2016,09,16,21,27,13.80
2016,09,16,21,28,13.80
2016,09,16,21,29,13.80
2016,09,16,21,30,13.80
2016,09,16,21,31,13.80
2016,09,16,21,32,13.80
2016,09,16,21,33,13.80
2016,09,16,21,34,13.80
2016,09,16,21,35,13.90
2016,09,16,21,36,13.90
2016,09,16,21,37,13.90
2016,09,16,21,38,13.90
2016,09,16,21,39,13.90
2016,09,16,21,40,13.90
2016,09,16,21,41,14.00
2016,09,16,21,42,14.00
2016,09,16,21,43,14.00
2016,09,16,21,44,14.00
2016,09,16,21,45,14.00
2016,09,16,21,46,14.10
2016,09,16,21,47,14.10
2016,09,16,21,48,14.10
2016,09,16,21,49,14.10
2016,09,16,21,50,14.10
2016,09,16,21,51,14.10
2016,09,16,21,52,14.10
2016,09,16,21,53,14.10
2016,09,16,21,54,14.10
2016,09,16,21,55,14.10
2016,09,16,21,56,14.10
2016,09,16,21,57,14.10
2016,09,16,21,58,14.20
2016,09,16,21,59,14.20
2016,09,16,22,00,14.20
2016,09,16,22,01,14.20
2016,09,16,22,02,14.20
2016,09,16,22,03,14.20
2016,09,16,22,04,14.20
2016,09,16,22,05,14.20
2016,09,16,22,06,14.20
2016,09,16,22,07,14.20
2016,09,16,22,08,14.20
2016,09,16,22,09,14.20
2016,09,16,22,10,14.20
2016,09,16,22,11,14.20
2016,09,16,22,12,14.20
2016,09,16,22,13,14.20
2016,09,16,22,14,14.20
2016,09,16,22,15,14.10
2016,09,16,22,16,14.10
2016,09,16,22,17,14.10
2016,09,16,22,18,14.10
2016,09,16,22,19,14.10
2016,09,16,22,20,14.10
2016,09,16,22,21,14.10
2016,09,16,22,22,14.10
2016,09,16,22,23,14.00
2016,09,16,22,24,14.00
2016,09,16,22,25,14.00
2016,09,16,22,26,14.00
2016,09,16,22,27,14.00
2016,09,16,22,28,14.00
2016,09,16,22,29,14.00
2016,09,16,22,30,14.00
2016,09,16,22,31,14.00
2016,09,16,22,32,14.00
2016,09,16,22,33,14.00
2016,09,16,22,34,14.00
